Wind_Speed
14 12 13 15 17 13 7 9 10 9 6 6 3 5 2 5 6 7 9 11 19 20 22 22 21 18 16 16 18 23 17 15 12 16 20 16 13 12 15 17 18 20 23
16 15 16 18 18 17 15 9 11 8 1 5 5 6 7 4 8 7 8 13 16 18 22 26 34 30 24 22 28 31 32 28 26 23 18 18 16 17 18 21 25 28 29
23 23 21 19 20 20 18 13 7 8 6 8 12 14 6 5 12 15 15 21 28 34 38 41 42 42 34 31 30 31 38 32 28 27 23 27 31 28 24 26 24 37 45
30 32 28 25 23 24 21 17 12 8 6 10 13 6 6 26 26 46 38 36 33 45 41 41 42 47 46 36 39 36 38 39 33 33 31 29 30 36 38 39 35 42 46
44 36 30 29 29 25 21 18 15 16 14 12 18 24 33 41 44 30 23 32 46 41 42 41 44 43 46 47 48 43 47 44 43 44 42 36 35 34 37 39 42 43 41
33 32 32 30 30 23 18 19 19 16 25 24 29 32 38 43 47 43 46 49 49 45 38 42 44 43 46 49 54 55 55 53 53 52 52 54 47 45 45 47 47 49 51
33 29 29 25 26 24 23 27 25 26 29 33 34 38 39 40 43 46 51 58 53 56 54 54 54 51 51 53 53 61 61 61 60 60 61 58 61 56 56 56 54 59 53
35 31 31 32 31 31 32 31 31 32 33 33 36 37 41 43 44 47 53 53 55 57 59 58 58 61 56 62 64 64 67 67 68 66 68 66 66 68 63 61 61 62 64
27 30 30 32 34 38 40 41 39 40 41 43 43 46 46 48 50 54 57 57 58 61 64 64 67 65 69 70 69 69 69 68 70 69 67 67 70 71 70 71 75 72 72
18 20 24 28 35 43 46 44 46 47 48 49 51 53 55 58 61 64 65 67 70 72 74 75 75 75 75 78 78 79 80 80 82 82 82 81 81 74 79 77 77 78 79
15 15 16 17 20 22 26 29 32 35 39 40 42 44 50 55 60 66 71 70 69 71 73 77 79 81 82 84 83 82 82 83 84 85 86 86 84 79 75 76 79 83 79
13 13 14 14 14 15 16 18 20 22 25 27 29 31 34 35 38 39 41 43 47 51 55 59 62 64 65 66 68 69 69 70 70 72 74 73 73 75 74 75 74 71 50
10 9 10 10 11 13 14 16 18 19 20 21 24 25 26 26 26 27 30 33 35 38 40 42 44 46 48 50 54 57 60 62 63 63 63 63 62 60 58 58 59 61 62
11 11 12 12 12 12 13 13 14 15 15 15 17 19 20 21 19 22 25 29 31 32 33 33 33 35 36 38 42 48 52 55 56 55 52 50 48 43 40 39 39 43 45
11 11 12 12 12 11 10 8 8 8 13 14 16 17 19 20 20 25 29 33 30 27 27 28 25 26 31 33 37 42 46 48 47 46 46 44 41 38 32 30 28 26 30
11 11 10 9 7 6 7 5 8 11 14 15 18 17 15 22 25 27 28 33 32 30 30 31 32 34 37 39 42 40 39 38 39 39 39 38 38 35 31 28 25 23 22
10 7 5 4 4 5 6 9 11 14 16 16 18 21 21 21 25 27 31 36 33 33 33 37 39 38 37 36 39 37 36 32 29 30 33 31 31 33 34 32 29 24 21
7 2 2 2 2 3 7 12 13 13 16 18 18 18 20 24 25 28 30 35 33 36 41 42 42 43 41 38 36 35 35 32 29 27 25 24 25 26 27 30 31 31 30
7 4 1 3 5 7 8 8 11 14 18 19 18 22 23 28 30 31 31 34 32 36 39 39 46 50 48 41 36 35 36 33 28 24 22 20 21 20 21 22 25 31 34
7 5 2 4 5 8 8 8 10 18 18 19 20 19 25 28 28 31 32 31 34 36 39 42 46 50 49 48 43 36 35 28 26 23 22 24 20 18 16 16 18 21 26
7 5 4 5 8 9 9 11 18 16 20 20 18 21 22 25 28 31 32 35 36 41 40 42 46 51 54 52 51 40 36 30 30 23 22 25 23 15 13 13 12 13 13
6 5 4 5 8 9 11 13 20 17 19 19 20 21 23 25 28 31 33 34 38 41 43 43 46 47 52 57 53 45 38 33 31 29 26 23 19 18 17 14 12 11 11
7 7 7 8 9 10 13 14 18 16 19 20 20 22 25 27 30 31 34 34 36 40 42 43 45 46 51 56 58 55 48 37 31 28 26 24 23 22 20 18 17 14 13
9 10 10 9 10 12 14 14 16 18 19 18 21 25 25 28 31 32 35 35 36 36 39 41 41 42 44 49 54 56 51 46 37 29 25 23 23 23 21 20 18 16 15
12 12 11 12 14 15 15 16 19 20 21 23 24 25 27 27 29 32 31 32 34 34 36 38 41 39 38 42 47 50 48 45 45 43 40 35 29 26 27 26 25 23 23
15 14 15 16 17 18 18 19 20 23 24 25 27 28 28 29 30 30 31 31 33 33 34 36 38 38 36 36 39 39 43 41 38 40 41 42 43 47 46 48 50 39 29
Wind_Direction
291 316 320 323 333 326 339 335 319 298 270 264 315 317 265 315 311 324 322 324 323 327 332 335 320 288 287 288 308 306 304 300 287 291 314 313 307 314 310 300 304 313 316
283 305 313 314 323 324 329 357 1 350 105 113 86 96 121 287 306 296 337 319 307 300 306 300 307 303 278 280 282 298 297 297 285 268 264 282 290 300 302 302 303 298 302
281 291 303 300 310 311 317 331 334 351 8 97 109 91 98 323 317 308 295 301 296 289 287 284 283 284 285 270 276 284 288 287 274 274 286 299 296 295 296 298 299 304 300
286 286 290 289 298 307 301 306 329 345 23 87 106 44 318 303 307 294 286 281 278 275 273 276 277 275 273 272 270 277 276 283 271 275 276 284 289 292 288 298 295 297 287
283 284 281 283 288 291 290 287 302 295 294 276 274 258 250 266 255 255 251 256 265 276 268 272 277 275 276 272 270 267 273 278 273 273 270 272 274 281 279 278 281 284 286
274 277 278 278 278 275 281 264 264 278 267 265 263 261 246 251 250 246 256 259 259 266 262 268 272 280 275 274 276 277 275 276 275 271 272 273 278 273 276 278 284 286 284
279 268 262 263 264 262 260 262 265 263 261 257 256 252 251 254 256 258 263 261 271 262 274 269 268 272 272 272 274 273 276 280 280 279 277 276 273 278 282 279 279 281 275
274 270 261 257 254 258 258 260 263 263 265 266 267 262 256 259 262 260 261 265 267 268 270 265 269 265 270 271 271 272 273 276 278 279 276 275 275 273 273 272 277 282 274
266 269 271 273 274 270 269 269 269 269 268 272 269 269 269 264 264 265 267 269 271 272 274 272 270 269 269 270 266 269 271 274 274 275 276 275 275 274 271 267 275 277 279
279 272 270 271 266 266 266 268 270 271 273 272 271 271 270 270 273 274 275 275 275 277 280 279 276 278 275 278 276 274 275 274 273 276 276 281 279 277 271 269 271 273 275
307 304 295 285 277 272 269 268 270 272 271 273 273 274 272 272 272 273 273 275 274 275 275 276 278 280 279 279 281 282 282 282 282 281 281 280 280 280 279 278 275 274 276
314 308 301 298 296 295 294 294 293 292 292 292 291 289 288 288 288 286 284 283 282 281 279 278 278 279 280 281 281 281 280 280 280 280 279 279 278 277 275 275 275 273 268
320 322 320 314 314 309 314 315 310 304 305 309 306 302 299 301 302 297 294 292 290 288 286 284 284 285 286 287 286 284 283 282 281 281 282 282 281 280 277 275 271 268 261
331 333 333 337 338 339 338 332 329 331 333 333 335 339 342 344 337 328 323 318 315 315 316 312 304 297 293 291 290 288 286 285 284 282 283 284 286 284 281 278 276 268 264
332 329 333 342 341 344 348 356 3 6 1 2 5 12 17 16 356 346 349 352 340 329 322 319 311 303 309 312 307 307 299 296 292 284 279 278 282 285 288 288 289 281 263
322 326 334 347 352 14 37 18 16 0 351 347 347 353 348 350 352 357 358 355 357 352 342 330 322 312 310 316 316 310 305 298 290 286 280 277 275 277 284 287 288 282 272
320 321 348 14 33 39 27 352 343 345 343 340 338 341 341 340 352 359 0 358 353 355 351 347 344 339 331 327 323 323 322 319 309 298 291 288 282 276 278 282 284 283 280
299 288 74 81 168 261 317 339 356 9 357 353 352 349 356 358 356 354 354 359 354 355 357 356 1 360 353 345 340 338 333 328 322 318 313 302 292 288 280 273 275 279 282
266 226 230 322 336 345 355 3 1 358 356 356 357 350 352 352 347 351 354 358 356 353 355 360 3 5 2 356 352 346 341 339 336 335 331 327 318 303 294 285 274 268 269
244 260 312 341 352 346 345 335 328 346 345 347 344 353 351 360 8 8 8 6 2 359 2 7 8 10 10 7 1 351 348 346 348 349 355 351 334 326 318 307 293 281 274
252 272 315 331 333 326 316 312 327 334 338 346 345 345 351 352 359 4 4 5 3 3 2 5 9 12 15 10 8 2 359 358 1 356 353 347 360 353 342 335 327 316 309
252 265 288 303 318 324 332 319 332 333 338 351 357 353 352 356 358 357 1 3 4 3 3 0 3 10 14 17 14 12 9 7 8 9 8 4 4 12 14 13 10 4 356
251 251 267 293 310 320 328 329 336 330 334 336 341 346 349 349 351 352 355 355 358 2 360 0 2 7 14 14 19 19 17 13 12 12 16 22 25 25 22 18 15 11 7
256 262 276 290 306 312 320 325 329 324 328 336 337 341 343 343 344 344 345 349 353 358 358 0 1 1 9 9 12 13 17 20 20 14 8 5 3 0 357 353 349 347 343
260 267 278 296 303 303 308 310 316 319 321 323 327 329 333 339 342 343 343 343 343 349 350 354 357 357 3 8 11 13 14 20 24 31 35 30 14 356 343 334 329 322 316
268 276 282 287 294 301 307 314 318 320 322 320 318 318 323 328 333 339 342 344 342 345 345 345 351 354 356 359 10 11 14 17 20 25 27 29 32 30 31 30 27 12 335
Height
10978 10975 10973 10972 10971 10970 10968 10967 10966 10964 10966 10968 10972 10976 10978 10980 10981 10981 10981 10982 10979 10977 10977 10977 10977 10974 10976 10977 10973 10969 10966 10963 10957 10957 10958 10956 10953 10952 10950 10948 10948 10948 10949
10974 10972 10970 10969 10968 10967 10966 10964 10963 10964 10963 10965 10968 10971 10976 10976 10976 10976 10976 10977 10977 10976 10975 10975 10975 10972 10968 10968 10967 10966 10963 10960 10955 10950 10948 10949 10948 10946 10945 10944 10942 10940 10940
10969 10968 10967 10967 10965 10965 10964 10963 10962 10963 10964 10963 10966 10972 10975 10976 10977 10975 10970 10969 10969 10968 10966 10965 10963 10964 10963 10961 10959 10958 10956 10953 10949 10948 10946 10944 10941 10939 10936 10935 10933 10932 10930
10961 10962 10963 10962 10963 10962 10962 10963 10962 10964 10965 10966 10966 10969 10972 10973 10972 10971 10957 10959 10958 10957 10954 10952 10950 10951 10954 10954 10953 10951 10949 10948 10945 10942 10940 10937 10934 10931 10928 10926 10925 10924 10920
10954 10954 10955 10955 10957 10958 10958 10958 10959 10961 10961 10964 10962 10960 10955 10950 10955 10956 10942 10943 10947 10945 10943 10943 10941 10941 10944 10943 10943 10943 10940 10937 10935 10935 10932 10928 10926 10923 10921 10920 10917 10915 10913
10944 10945 10947 10948 10947 10950 10953 10951 10952 10954 10954 10952 10949 10947 10945 10941 10942 10939 10932 10933 10936 10935 10933 10933 10931 10931 10932 10932 10931 10930 10927 10925 10924 10923 10922 10920 10917 10914 10911 10910 10908 10906 10905
10933 10936 10939 10939 10941 10941 10943 10945 10943 10943 10942 10940 10940 10937 10933 10929 10925 10923 10918 10922 10923 10921 10920 10919 10919 10920 10920 10920 10918 10915 10913 10912 10910 10909 10907 10908 10904 10903 10900 10899 10897 10896 10894
10923 10925 10928 10931 10933 10931 10933 10934 10933 10933 10932 10931 10929 10926 10923 10920 10918 10917 10915 10912 10910 10907 10904 10903 10903 10905 10905 10905 10903 10898 10897 10897 10895 10892 10889 10888 10888 10886 10886 10882 10882 10880 10879
10918 10917 10917 10918 10919 10920 10921 10922 10922 10922 10923 10923 10920 10915 10912 10910 10908 10906 10901 10899 10895 10892 10888 10887 10886 10885 10886 10890 10889 10885 10880 10878 10878 10876 10873 10871 10868 10867 10866 10866 10866 10865 10863
10914 10913 10911 10911 10911 10912 10912 10911 10912 10912 10913 10912 10908 10905 10901 10899 10897 10894 10890 10885 10881 10877 10872 10872 10871 10869 10867 10867 10866 10864 10861 10859 10857 10854 10851 10847 10844 10845 10845 10846 10846 10846 10847
10907 10906 10906 10905 10906 10906 10904 10903 10902 10901 10899 10897 10896 10893 10890 10886 10882 10879 10876 10871 10866 10863 10859 10856 10853 10851 10848 10844 10841 10837 10834 10831 10829 10826 10824 10823 10821 10818 10816 10818 10822 10824 10829
10902 10901 10901 10900 10899 10897 10895 10894 10893 10891 10889 10887 10885 10881 10878 10875 10872 10868 10863 10857 10852 10848 10845 10842 10838 10834 10830 10825 10820 10815 10812 10808 10805 10801 10799 10798 10797 10795 10793 10792 10796 10799 10807
10899 10897 10896 10896 10894 10892 10889 10887 10886 10885 10883 10880 10878 10874 10870 10868 10864 10859 10854 10849 10845 10841 10836 10831 10826 10821 10815 10810 10803 10797 10792 10789 10785 10780 10777 10774 10773 10771 10770 10769 10769 10772 10778
10897 10894 10893 10892 10889 10887 10886 10885 10883 10880 10879 10876 10873 10869 10864 10861 10856 10851 10846 10841 10837 10832 10827 10821 10816 10810 10804 10797 10790 10783 10776 10770 10767 10763 10760 10757 10755 10754 10753 10751 10751 10750 10751
10894 10893 10891 10888 10887 10886 10884 10883 10881 10879 10877 10874 10871 10867 10864 10860 10855 10850 10844 10838 10831 10825 10819 10814 10808 10801 10796 10788 10780 10772 10764 10758 10753 10749 10746 10744 10743 10742 10740 10738 10737 10737 10737
10893 10891 10888 10886 10885 10884 10884 10883 10881 10879 10877 10873 10870 10867 10863 10859 10854 10849 10843 10836 10830 10823 10817 10810 10803 10795 10787 10780 10772 10763 10755 10746 10740 10736 10733 10731 10730 10730 10729 10728 10728 10727 10725
10891 10889 10887 10885 10884 10884 10884 10882 10881 10878 10875 10872 10868 10865 10862 10858 10852 10846 10840 10833 10827 10821 10814 10805 10797 10788 10780 10771 10761 10752 10743 10735 10729 10724 10721 10719 10718 10717 10717 10718 10718 10719 10719
10890 10888 10886 10885 10885 10885 10884 10881 10879 10876 10873 10869 10867 10863 10860 10856 10851 10845 10838 10833 10825 10818 10810 10801 10792 10782 10772 10762 10753 10744 10735 10728 10722 10717 10713 10710 10708 10706 10706 10708 10708 10709 10708
10887 10886 10885 10884 10884 10883 10882 10880 10877 10875 10871 10868 10865 10863 10859 10854 10848 10843 10837 10830 10823 10816 10808 10800 10790 10779 10768 10758 10749 10740 10731 10724 10718 10713 10708 10703 10700 10697 10695 10696 10697 10698 10699
10885 10884 10883 10883 10882 10882 10880 10878 10876 10873 10870 10867 10865 10861 10858 10853 10847 10842 10836 10829 10822 10814 10807 10799 10790 10779 10767 10756 10746 10737 10729 10722 10715 10709 10704 10700 10695 10692 10690 10690 10689 10688 10688
10883 10882 10882 10882 10882 10880 10879 10877 10875 10872 10869 10866 10862 10860 10857 10852 10847 10842 10836 10829 10821 10813 10805 10797 10790 10779 10768 10756 10746 10736 10727 10719 10713 10708 10704 10700 10695 10691 10689 10687 10686 10684 10683
10881 10881 10881 10881 10880 10878 10877 10875 10873 10870 10867 10864 10861 10859 10856 10851 10846 10840 10834 10827 10819 10811 10804 10796 10789 10779 10770 10759 10747 10736 10727 10720 10715 10710 10705 10702 10698 10694 10691 10689 10688 10686 10683
10879 10879 10879 10878 10877 10876 10875 10873 10870 10868 10866 10863 10860 10858 10853 10849 10844 10839 10833 10826 10819 10812 10804 10796 10788 10779 10771 10762 10751 10742 10732 10723 10717 10714 10710 10706 10702 10699 10696 10693 10690 10688 10686
10876 10876 10876 10875 10875 10874 10873 10871 10869 10866 10863 10860 10858 10855 10852 10847 10841 10836 10829 10824 10818 10812 10805 10797 10789 10781 10775 10766 10757 10748 10738 10730 10722 10717 10714 10711 10707 10704 10700 10697 10693 10690 10687
10873 10873 10873 10872 10872 10871 10870 10868 10865 10863 10859 10856 10854 10852 10848 10845 10841 10835 10829 10823 10817 10811 10805 10799 10792 10784 10776 10769 10761 10754 10745 10737 10731 10723 10718 10713 10708 10704 10701 10697 10693 10689 10685
10868 10869 10869 10869 10868 10866 10865 10862 10861 10858 10855 10852 10850 10847 10844 10840 10837 10832 10826 10821 10815 10810 10804 10798 10792 10785 10778 10771 10765 10757 10750 10744 10738 10732 10725 10720 10715 10710 10704 10699 10693 10686 10679